Flag for Austria Weather past 2 weeks in Schwechat, Lower Austria, Austria

Now
46 °F

Overcast.


Feels Like: 39 °F
Forecast: 40 / 50 °F
Wind: 18 mph from North

Location: Vienna Schwechat-Flughafen Airport

Current Time: Oct 23, 2014 at 9:55:54 PM

Latest Report: Oct 23, 2014 at 9:20 PM


Visibility: N/A

Pressure: 30.01 "Hg

Humidity: 87%

Dew point: 43 °F

Location of SchwechatLocation

Historic Weather in Schwechat — Graph

°F

Schwechat temperature yesterday

Maximum temperature yesterday: 59 °F (at 12:20 AM)
Minimum temperature yesterday: 45 °F (at 4:50 PM)
Average temperature yesterday: 48 °F

Past Weeks' High & Low Weather Summary

 TemperatureHumidityPressure
High73 °F (Oct 9, 2:50 PM)100% (Oct 10, 3:20 AM)30.30 "Hg (Oct 10, 3:20 AM)
Low43 °F (Oct 23, 3:50 AM)50% (Oct 16, 4:20 PM)29.59 "Hg (Oct 21, 11:50 PM)
Average58 °F85%29.94 "Hg
* Reported Oct 8 8:20 PM — Oct 23 8:20 PM, Schwechat, Weather by CustomWeather, © 2014

Note: Actual official high and low records may vary slightly from our data, if they occured in-between our weather recording intervals... More about our weather records

Advertising

Schwechat weather history for previous 24 hours

 ConditionsComfort  
Time TempWeatherWind HumidityBarometerVisibility
8:20 PM
Oct 23
46 °FOvercast.20 mph82%30.01 "HgN/A
7:50 PM46 °FOvercast.18 mph82%30.01 "HgN/A
7:20 PM46 °FOvercast.18 mph87%29.98 "HgN/A
6:50 PM46 °FLight rain. Partly sunny.20 mph87%29.98 "HgN/A
6:20 PM46 °FLight rain. Partly sunny.17 mph87%29.98 "HgN/A
5:50 PM46 °FLight rain. Partly sunny.24 mph87%29.95 "HgN/A
5:20 PM48 °FLight rain. Partly sunny.22 mph82%29.95 "HgN/A
4:50 PM48 °FLight rain. Partly sunny.23 mph87%29.92 "HgN/A
4:20 PM48 °FLight rain. Broken clouds.18 mph87%29.92 "HgN/A
3:50 PM48 °FLight rain. Partly sunny.18 mph87%29.92 "HgN/A
3:20 PM48 °FLight rain. Partly sunny.20 mph87%29.89 "HgN/A
2:50 PM48 °FRain. Partly sunny.17 mph87%29.89 "HgN/A
2:20 PM48 °FPartly sunny.17 mph87%29.89 "HgN/A
1:50 PM48 °FBroken clouds.16 mph87%29.86 "HgN/A
1:20 PM48 °FLight rain. Partly sunny.18 mph87%29.86 "HgN/A
12:50 PM50 °FPartly sunny.20 mph82%29.86 "HgN/A
12:20 PM50 °FLight rain. Partly sunny.20 mph82%29.86 "HgN/A
11:50 AM50 °FPartly sunny.17 mph88%29.83 "HgN/A
11:20 AM48 °FLight rain. Broken clouds.14 mph94%29.83 "HgN/A
10:50 AM48 °FPartly sunny.14 mph87%29.83 "HgN/A
10:20 AM48 °FPartly sunny.13 mph94%29.83 "HgN/A
9:50 AM46 °FPartly sunny.13 mph93%29.80 "HgN/A
9:20 AM46 °FPartly sunny.12 mph93%29.80 "HgN/A
8:50 AM46 °FPartly sunny.10 mph93%29.77 "HgN/A
8:20 AM46 °FPassing clouds.12 mph87%29.77 "HgN/A
7:50 AM46 °FPassing clouds.10 mph87%29.74 "HgN/A
7:20 AM46 °FPassing clouds.8 mph87%29.74 "HgN/A
6:50 AM45 °FPartly cloudy.10 mph93%29.71 "HgN/A
6:20 AM45 °FPassing clouds.10 mph87%29.71 "HgN/A
5:50 AM45 °FPartly cloudy.15 mph87%29.71 "HgN/A
5:20 AM45 °FPartly cloudy.17 mph87%29.71 "HgN/A
4:50 AM45 °FPartly cloudy.18 mph87%29.71 "HgN/A
4:20 AM43 °FPassing clouds.15 mph93%29.71 "HgN/A
3:50 AM43 °FLight rain. Passing clouds.12 mph93%29.71 "HgN/A
3:20 AM45 °FLight rain. Passing clouds.17 mph87%29.71 "HgN/A
2:50 AM45 °FLight rain. Passing clouds.18 mph81%29.74 "HgN/A
2:20 AM45 °FPassing clouds.21 mph81%29.71 "HgN/A
1:50 AM45 °FPartly cloudy.17 mph76%29.71 "HgN/A
1:20 AM45 °FPartly cloudy.18 mph81%29.71 "HgN/A
12:50 AM45 °FPartly cloudy.20 mph81%29.74 "HgN/A
12:20 AM45 °FPassing clouds.18 mph81%29.74 "HgN/A
11:50 PM
Oct 22
45 °FPassing clouds.20 mph81%29.74 "HgN/A
11:20 PM45 °FPassing clouds.17 mph81%29.74 "HgN/A
10:50 PM45 °FPassing clouds.20 mph81%29.74 "HgN/A
10:20 PM45 °FPassing clouds.20 mph81%29.74 "HgN/A
9:50 PM45 °FPassing clouds.24 mph81%29.74 "HgN/A
9:20 PM45 °FPassing clouds.21 mph81%29.74 "HgN/A
Weather by CustomWeather, © 2014

See weather overviewHow to use our weather pages